Regional Weather Roundup
Issued by NWS Midland/Odessa, TX

Skip options and go directly to product.
Home | Oldest Version | Previous Version | Current Version | All | Graphics & Text | Save Text | Print | Product List | Glossary On

Skip product version selection by date and time.   
708
ASUS44 KMAF 300501
RWRMAF
MIDLAND AREA WEATHER ROUNDUP
NATIONAL WEATHER SERVICE MIDLAND TX
1200 AM CDT MON MAY 30 2016

...IN SOUTHWEST TEXAS AND SOUTHEAST NEW MEXICO...

CITY           SKY/WX    TMP DP  RH WIND       PRES   REMARKS
ALPINE         PTCLDY    70  61  73 S5        30.19R
ANDREWS        FAIR      61  55  81 NE20G30   30.14S
ARTESIA        PTCLDY    64  54  68 E17G26    30.11R
BIG SPRING     PTCLDY    60  56  88 N17G30    30.12F
CARLSBAD       CLOUDY    65  56  72 NE17G24   30.08R
DRYDEN           N/A     76  69  79 NE6       30.00S
FORT STOCKTON  NOT AVBL
GUAD PASS      NOT AVBL
HOBBS          CLEAR     57  57 100 E18G28    30.16S
MARFA          CLEAR     67  60  78 S6        30.18S
MIDLAND AIRPK  CLOUDY    66  56  71 NE22G28   30.12S HAZE
MIDLAND INTL   CLOUDY    66  56  70 NE23G31   30.10S
ODESSA         CLOUDY    66  55  67 NE25G33   30.12R
PECOS          CLEAR     75  64  68 E9        30.01R
PRESIDIO       FAIR      82  61  49 N3        30.06R
SEMINOLE       CLEAR     60  53  79 E22G31    30.16S
SNYDER           N/A     60  58  92 N17G26    30.09F
WINK           NOT AVBL
$$
...OTHER STATIONS IN TEXAS...

CITY           SKY/WX    TMP DP  RH WIND       PRES   REMARKS
ABILENE        LGT RAIN  65  65 100 N17G26    30.06R
AMARILLO       CLOUDY    56  52  86 S14       30.12R
AUSTIN         PTCLDY    75  71  87 SE10      30.02F
BROWNSVILLE    PTCLDY    79  76  90 SE8       30.01R
CORPUS CHRISTI PTCLDY    79  75  87 SE9       30.00F
DALLAS FTW     CLOUDY    73  63  70 SE6       30.03F
DEL RIO        CLEAR     79  72  79 SE7       29.95S
EL PASO        PTCLDY    79  35  20 S7        30.02R
HOUSTON INT    CLOUDY    72  71  97 S5        30.05F
LUBBOCK        CLOUDY    58  54  86 E20G30    30.12F
SAN ANGELO     PTCLDY    74  68  81 SW7       29.99F
SAN ANTONIO    MOCLDY    76  71  85 SE13      30.03S
WACO           PTCLDY    77  70  79 SE10      30.02R
WICHITA FALLS  NOT AVBL
$$
...OTHER LOCATIONS IN NEW MEXICO...

CITY           SKY/WX    TMP DP  RH WIND       PRES   REMARKS
ALAMAGORDO     CLEAR     75  28  17 S10G16    30.05R
ALBUQUERQUE    PTCLDY    68  17  14 S9        30.06R
CANNON AFB     CLOUDY    55  55 100 SE12      30.17R
CLOVIS         CLOUDY    54  48  82 SE14      30.16R
HOLLOMAN AFB   MOCLDY    73  23  15 SE7       30.02R
ROSWELL        CLEAR     62  49  62 E14G23    30.13R
RUIDOSO          N/A     59  46  63 SE8       30.28R
SANTA FE       CLEAR     66  33  29 E16       30.13R
TRUTH OR CONSE CLEAR     74  28  18 SW6       30.05R
TUCUMCARI      CLEAR     54  51  90 NE7       30.15R
$$

USA.gov is the U.S. government's official web portal to all federal, state and local government web resources and services.